Location: �mondeville
(49.4591°N, 1.3431°W)
Time: 20:14:52
(UTC+00:00)

Meteor 1-24 Rocket - Pass Details

Date: 22 October 2019
Orbit: 790 x 927 km, 81.3° (Epoch: 19 November)

Event Time Altitude Azimuth Distance (km) Brightness Sun altitude
Rises 05:10:53 0° 180° (S) 3,451 6.9 -14.6°
Reaches altitude 10° 05:13:18 10° 177° (S) 2,537 6.2 -14.2°
Maximum altitude 05:19:02 65° 97° (E) 990 4.3 -13.3°
Drops below altitude 10° 05:24:58 10° 17° (NNE) 2,626 6.4 -12.3°
Sets 05:27:30 0° 15° (NNE) 3,582 7.1 -11.9°
